Location: Dybk�w
(50.1684°N, 22.6247°E)
Time: 19:47:47
(UTC+00:00)

Daily predictions for brighter satellites

Satellite Brightness Start Highest point End
(mag) Time Altitude Azimuth Time Altitude Azimuth Time Altitude Azimuth
BREEZE-M DEB (TANK) 4.0 19:14:25 10° W 19:18:02 86° S 19:30:55 10° E
SPOT 1/Viking Rocket 3.7 19:21:08 10° SSE 19:26:15 68° ENE 19:31:24 10° N
Cosmos-2242 3.1 19:25:17 10° N 19:29:39 87° E 19:34:01 10° S
Cosmos 1400 Rocket 2.8 19:27:35 10° NNW 19:31:36 85° W 19:35:32 10° S
Alouette 2 Rocket 3.6 19:29:17 10° NNW 19:33:04 88° E 19:38:06 10° SSE
Cosmos 2221 3.9 19:30:48 10° NNE 19:34:30 26° ENE 19:38:09 10° SE
Lacrosse 5 rocket 3.2 19:33:40 10° WNW 19:37:34 33° N 19:41:15 10° ENE
Resurs 01 Rocket 3.0 19:34:37 10° SSW 19:38:42 36° W 19:42:48 10° NNW
NOSS 7 (D) 4.5 19:37:08 10° SW 19:39:53 58° NW 19:42:31 10° NE
Terra 2.5 19:36:17 10° SE 19:40:45 42° ENE 19:45:14 10° N
SAR-Lupe-2 3.8 19:40:44 10° NNE 19:44:16 51° E 19:47:46 10° S
BREEZE-M DEB (TANK) 4.2 19:41:35 10° SSW 19:44:39 17° SSE 19:46:26 10° ESE
Cosmos 2322 Rocket 3.5 19:43:17 10° SW 19:48:38 44° NW 19:54:02 10° NNE
BREEZE M DEB (TANK) 3.0 19:47:35 10° W 19:50:03 27° SSW 19:51:25 14° SSE
NOSS 3-3 (A) 4.2 19:45:47 10° SSW 19:51:20 46° ESE 19:57:35 10° NE
NOSS 3-3 (C) 4.2 19:45:54 10° SSW 19:51:27 46° ESE 19:57:42 10° NE
CZ-4B DEB 4.4 19:50:09 10° SSE 19:53:30 85° W 19:56:53 10° NNW
Cosmos 1455 4.0 19:51:43 10° NNW 19:55:04 29° W 19:58:25 10° SSW
Cosmos 1758 Rocket 4.3 19:51:17 10° SSW 19:55:43 58° WNW 20:00:11 10° N
SL-24 R/B - RUBIN 2 4.5 19:51:39 10° SSW 19:57:46 78° SE 20:04:27 10° NE
USA 245 4.3 19:55:38 10° S 19:58:56 43° W 20:03:05 10° NNW
Cosmos 1328 4.4 19:57:07 10° SSW 20:01:01 57° WNW 20:04:57 10° N
Cosmos 1538 Rocket 4.1 20:00:58 10° S 20:06:15 62° ESE 20:11:31 10° NNE
ATLAS 2AS CENTAUR R/B 3.3 20:00:19 10° NW 20:07:58 59° NE 20:14:58 10° ESE
Cosmos 2181 Rocket 4.1 20:04:30 10° N 20:10:54 82° W 20:17:08 10° S
COSMOS 2428 2.7 20:05:32 10° SSW 20:11:07 63° ESE 20:16:44 10° NE
Cosmos 2322 3.9 20:08:13 10° SSW 20:13:56 82° WNW 20:19:43 10° NNE
Cosmos 2074 Rocket 4.2 20:09:51 11° SSE 20:15:38 54° E 20:21:41 10° NNE
Cosmos 2084 3.8 20:11:44 10° NW 20:16:08 59° SW 20:19:31 16° SSE
Cosmos 1953 Rocket 4.1 20:14:42 10° SSW 20:18:58 59° WNW 20:23:16 10° N
Cosmos 773 Rocket 4.3 20:14:44 10° SSW 20:20:01 73° WNW 20:25:20 10° NNE
USA 215 3.4 20:14:55 10° ENE 20:21:21 54° SE 20:27:43 10° SW
ERS-1 Rocket 3.4 20:16:48 10° S 20:21:42 59° WSW 20:26:42 10° NNW
Cosmos 2237 Rocket 3.0 20:17:54 14° SSE 20:22:09 33° ESE 20:27:12 10° NE
ATLAS CENTAUR R/B 1.7 20:18:45 10° NW 20:22:18 45° WSW 20:24:46 18° S
Meteor 1-27 4.5 20:17:12 10° NNW 20:22:55 72° W 20:28:18 12° S
Cosmos 2219 Rocket 2.1 20:17:22 10° SSW 20:22:57 84° ESE 20:28:37 10° NNE
Cosmos 1869 3.3 20:20:06 10° N 20:24:06 72° E 20:27:01 18° SSE
Gblst 52 Del rocket 4.5 20:19:29 10° WNW 20:25:04 60° SSW 20:30:21 15° SE
Cosmos 2360 Rocket 3.5 20:20:31 10° WSW 20:25:52 42° NW 20:31:16 10° NNE
Cosmos 1842 Rocket 3.5 20:21:38 10° N 20:26:02 89° ESE 20:29:24 16° S
SPOT 5 3.3 20:23:12 12° S 20:27:50 59° WSW 20:32:33 10° NNW
CZ-4C R/B 4.4 20:24:53 10° NW 20:30:35 31° NNE 20:37:11 10° E
Atlas Centaur 2 4.3 20:32:36 10° SSW 20:34:15 11° S 20:34:39 11° S
Cosmos 2333 Rocket 2.4 20:31:10 10° SW 20:36:52 76° WNW 20:42:39 10° NNE
GEOS 3 Rocket 3.9 20:31:59 10° NE 20:37:24 76° NW 20:42:46 10° SW
BREEZE-M DEB (TANK) 3.9 20:43:56 19° SE 20:44:21 19° SE 20:48:40 10° E
ALOS 2 4.3 20:41:33 12° ESE 20:44:39 23° ENE 20:48:09 10° N
NOSS 0 Rocket 4.0 20:38:50 10° SSW 20:44:52 61° ESE 20:50:57 10° NE
Cosmos 1315 Rocket 4.1 20:42:36 10° NNW 20:46:23 37° W 20:49:46 12° SSW
Cosmos 2056 Rocket 4.0 20:42:50 10° NNW 20:48:10 55° ENE 20:52:07 18° SE
Meteor 2-2 Rocket 4.4 20:42:47 10° NNW 20:48:38 75° W 20:53:03 17° S
Iridium 2 4.3 20:45:14 10° N 20:48:55 43° E 20:50:54 23° SE
EO 1 Del DPAF 4.3 20:50:12 10° NE 20:53:33 29° E 20:54:55 23° SE
Cosmos 1892 2.6 20:51:28 22° S 20:53:48 74° E 20:57:36 10° NNE
ATLAS 5 CENTAUR R/B 3.4 20:50:52 10° W 20:54:53 36° NNW 20:59:28 10° NE
Cosmos 2278 Rocket 2.4 20:49:19 10° NW 20:54:56 65° WSW 20:58:50 20° S
USA 267 3.3 20:49:19 14° SE 20:55:08 79° SW 21:01:44 10° WNW
Cosmos 2297 4.4 20:51:50 10° NNW 20:57:25 49° NE 21:01:57 15° SE
Cosmos 1943 Rocket 3.7 20:53:24 10° NNW 20:58:21 29° NE 21:03:15 10° ESE
Cosmos 1606 4.1 20:56:59 10° N 21:00:24 28° ENE 21:02:25 18° ESE
MTI 3.8 20:57:21 10° N 21:00:26 70° WNW 21:02:17 22° SSW
Cosmos 44 4.3 21:02:28 21° SE 21:03:17 23° ESE 21:06:44 10° ENE
Cosmos 1680 Rocket 3.6 20:59:29 17° S 21:03:35 66° ESE 21:08:53 10° NNE
Cosmos 1408 2.6 21:03:38 28° SSE 21:05:17 60° E 21:08:50 10° NNE
SL-16 R/B 3.2 21:04:44 21° SE 21:07:14 29° ESE 21:12:03 10° NE
Cosmos 371 Rocket 4.3 21:04:42 10° NNW 21:09:17 39° ENE 21:12:43 16° ESE
Cosmos 2221 3.6 21:08:07 10° NNW 21:12:11 38° W 21:15:14 16° SSW
Cosmos 2184 Rocket 4.4 21:08:51 11° SSW 21:14:55 64° WNW 21:21:13 10° N
Lacrosse 5 rocket 2.8 21:13:39 10° NW 21:17:29 36° NNE 21:21:06 10° E
Terra 3.3 21:14:58 12° SSW 21:18:38 28° W 21:22:45 10° NW
In-Cosmos 22 Rocket 4.3 21:14:18 14° SSW 21:18:50 68° WNW 21:24:10 10° N
CREW DRAGON DEMO-1 DEB 3.6 21:21:24 33° ESE 21:21:24 33° ESE 21:23:38 10° E
Cosmos 923 Rocket 4.2 21:16:24 11° SSW 21:21:31 74° WNW 21:26:51 10° NNE
Cosmos 1766 Rocket 4.2 21:24:23 27° SE 21:26:17 42° E 21:30:28 10° NNE
Cosmos 1328 Rocket 4.2 21:22:45 10° N 21:26:54 44° ENE 21:29:03 24° SE
Cosmos 2058 3.7 21:27:37 16° SW 21:30:42 47° WNW 21:34:43 10° N
NOSS 3-4 (A) 4.0 21:24:17 10° NW 21:31:07 61° SW 21:36:03 23° SSE
NOSS 3-4 (C) 4.0 21:24:24 10° NW 21:31:15 61° SW 21:36:11 23° SSE
Okean 3 Rocket 3.8 21:30:13 29° SSE 21:32:16 56° E 21:36:37 10° NNE
Cosmos 2218 Rocket 4.4 21:32:57 23° SSE 21:36:42 50° E 21:42:45 10° NNE
Cosmos 1624 Rocket 4.1 21:33:13 10° NNW 21:38:24 64° WSW 21:41:12 27° S
TIMED 4.4 21:36:53 26° SSW 21:39:16 79° ESE 21:43:39 10° NNE
Cosmos 2366 rocket 4.4 21:37:17 24° SSE 21:41:01 52° E 21:47:08 10° NNE
Cosmos 1825 2.2 21:39:57 30° SSW 21:41:42 76° W 21:45:31 10° N
Cosmos 1340 3.6 21:40:48 28° SE 21:41:51 34° E 21:45:18 10° NNE
EO 1 Delta rocket 4.3 21:39:29 10° N 21:44:32 80° WNW 21:48:46 21° SSW
Cosmos 2369 Rocket 3.2 21:41:24 10° NNW 21:46:43 42° NE 21:51:34 12° ESE
Cosmos 1980 4.1 21:42:19 10° SW 21:47:54 61° WNW 21:53:31 10° NNE
Aureole 2 Rocket 2.1 21:45:39 10° NNW 21:48:27 57° WSW 21:48:50 51° SSW
IRIDIUM 106 4.5 21:46:03 27° SSE 21:48:47 63° E 21:53:58 10° N
COSMOS 2455 3.1 21:48:03 10° NNW 21:54:07 70° NE 21:58:41 18° SE
Thor Agena Rocket 3.9 21:52:50 10° N 21:57:53 62° WNW 22:01:29 19° SW
Cosmos 2151 3.3 21:55:43 26° SSW 21:58:01 63° WNW 22:02:16 10° N
Cosmos 1933 3.2 21:54:07 10° N 21:58:10 88° E 21:59:44 36° S
ATLAS 2AS CENTAUR R/B 3.3 21:51:44 10° NW 21:58:50 46° WSW 22:02:38 25° S
Cosmos 2341 Rocket 4.1 21:55:15 22° SSW 21:59:27 77° W 22:05:42 10° N
Helios 1A 3.4 21:57:31 28° SE 21:59:28 54° ENE 22:03:33 10° N
DELTA 2 R/B (1) 4.4 21:56:57 10° WSW 22:01:15 28° S 22:01:15 28° S
BREEZE-M DEB (TANK) 2.4 22:00:54 10° W 22:03:24 31° WSW 22:03:24 31° WSW
SL-4 R/B 1.6 22:04:30 40° NNE 22:04:30 40° NNE 22:06:04 10° N
USA 215 3.6 21:58:00 10° ENE 22:04:31 70° NNW 22:11:01 10° WSW
Genesis I 3.8 22:00:58 12° WSW 22:04:32 55° NW 22:08:23 10° NE
Cosmos 2237 Rocket 3.0 22:00:30 10° SW 22:06:02 50° NW 22:11:36 10° NNE
Cosmos 2219 Rocket 4.4 22:03:07 10° W 22:07:37 24° NW 22:12:09 10° NNE
Cosmos 2344 3.6 22:06:02 10° SW 22:13:30 87° NW 22:21:53 10° NE
Meteor 2-12 Rocket 4.4 22:09:55 26° S 22:13:33 87° E 22:19:45 10° N
Cosmos 1151 Rocket 3.2 22:09:41 10° NNW 22:13:59 61° W 22:15:44 33° SSW
SL-8 Rocket 4.0 22:11:02 24° SSW 22:14:55 78° W 22:21:07 10° N
Cosmos 1782 3.1 22:12:00 10° N 22:15:57 59° ENE 22:17:29 33° SE
Cosmos 1408 Rocket 3.5 22:15:03 34° S 22:16:54 82° E 22:21:20 10° NNE
CZ-4C R/B 3.2 22:13:27 10° NW 22:20:21 67° NE 22:28:25 10° SE
Cosmos 332 Rocket 3.7 22:15:45 10° NNW 22:20:34 77° WSW 22:22:47 32° SSE
ALOS 2 3.1 22:18:57 30° SSW 22:20:44 47° W 22:25:00 10° NNW
Cosmos 1420 Rocket 4.4 22:16:21 10° NNW 22:21:29 53° WSW 22:23:55 29° SSW
Cosmos 1346 Rocket 2.9 22:20:27 38° SSE 22:21:43 60° E 22:25:37 10° NNE
Helios 1B rocket 3.9 22:18:58 10° NE 22:22:24 25° E 22:23:47 21° SE
ATLAS 5 CENTAUR R/B 4.4 22:21:17 10° NNW 22:22:45 14° NNE 22:24:45 10° ENE
SL-16 R/B 4.5 22:20:44 10° ESE 22:25:30 24° NE 22:30:17 10° N
Cosmos 1727 Rocket 4.0 22:19:31 10° N 22:25:48 88° WSW 22:29:28 27° S
Cosmos 1500 Rocket 4.0 22:24:24 32° SSE 22:26:08 52° E 22:30:25 10° NNE
GP-B 3.8 22:26:41 10° N 22:30:56 45° W 22:33:05 26° SW
Cosmos 1633 2.5 22:32:54 44° S 22:33:56 77° E 22:37:34 10° NNE
Cosmos 1606 4.2 22:32:45 10° NNW 22:36:05 27° W 22:37:25 22° WSW
Cosmos 2278 Rocket 4.4 22:36:26 10° W 22:37:53 11° W 22:39:19 10° WSW
RESURS DK-1 2.7 22:34:32 10° NNW 22:38:39 61° NE 22:41:06 23° SE
USA 267 4.2 22:36:39 23° SSW 22:38:48 28° SW 22:44:18 10° WNW
Cosmos 1331 Rocket 4.3 22:36:39 10° NNW 22:41:58 67° ENE 22:45:33 21° SE
Cosmos 1943 Rocket 2.3 22:36:55 10° NNW 22:42:34 65° WSW 22:45:29 29° S
Cosmos 1805 Rocket 4.4 22:41:36 26° SE 22:43:24 38° E 22:47:26 10° NNE
Cosmos 1943 4.0 22:41:16 25° SSE 22:43:48 38° ESE 22:48:59 10° NE
Cosmos 44 3.5 22:40:50 17° WSW 22:44:07 57° NW 22:48:33 10° NE
Cosmos 1048 Rocket 4.1 22:42:50 30° S 22:45:27 70° ESE 22:50:42 10° NNE
Gbstr 26 Del rocket 2.8 22:44:19 38° SSW 22:45:30 54° SSE 22:49:40 10° ENE
Landsat 4 3.6 22:43:30 10° NNE 22:47:19 80° ESE 22:48:35 40° S
Cosmos 371 Rocket 4.3 22:45:19 10° NW 22:49:38 32° WSW 22:51:21 25° SW
SL-16 R/B 2.7 22:46:35 16° SW 22:51:02 57° NW 22:56:40 10° NNE
Meteor 1-29 4.3 22:49:58 10° NE 22:52:54 27° E 22:53:46 24° ESE
APEX 4.2 22:52:16 10° WNW 22:53:52 20° W 22:53:52 20° W
Cosmos 1862 3.8 22:53:29 32° SSE 22:54:56 49° E 22:58:48 10° NNE
Cosmos 405 3.4 22:51:56 10° NNW 22:55:22 47° W 22:56:11 38° SW
CREW DRAGON DEMO-1 DEB 3.0 22:53:20 10° W 22:56:25 72° N 22:59:29 10° ENE
Lacrosse 5 rocket 1.0 22:52:57 10° WNW 22:56:58 81° SW 22:59:15 23° SE
Cosmos 1452 Rocket 4.2 22:52:17 10° NW 22:57:10 40° WSW 22:59:20 27° SSW
Cosmos 1515 Rocket 4.4 22:54:26 10° NNW 22:58:28 38° W 23:00:08 27° SW
Cosmos 1110 Rocket 4.0 22:54:46 10° NNW 23:00:04 84° WSW 23:03:08 26° SSE
Cosmos 389 Rocket 3.8 22:59:29 10° N 23:02:44 34° ENE 23:04:34 20° SE
ISS -2.0 23:04:52 20° ESE 23:04:52 20° ESE 23:06:41 10° E
SeaSat 1 4.1 23:02:07 10° NE 23:05:57 22° ESE 23:08:09 17° SE
Cosmos 1707 Rocket 4.0 23:04:32 10° N 23:08:59 59° ENE 23:11:31 24° SSE
Cosmos 2228 Rocket 3.8 23:15:10 10° NNW 23:19:31 43° W 23:21:26 28° SW
Resurs 1-4 Rocket 3.6 23:15:39 10° NE 23:20:11 27° E 23:23:48 14° SE
Cosmos 1302 Rocket 4.1 23:16:03 10° NNW 23:21:18 75° ENE 23:25:17 17° SSE
Meteor 2-6 Rocket 4.4 23:20:27 10° NNW 23:25:48 55° W 23:28:38 26° SSW
Cosmos 1603 3.7 23:22:36 26° SSW 23:25:59 88° ESE 23:31:46 10° NNE
Meteor 1-10 Rocket 4.3 23:21:42 10° NNW 23:27:14 64° W 23:30:21 26° S
ADEOS II 4.4 23:26:35 10° NE 23:29:16 14° E 23:31:56 10° ESE
SWARM C 4.5 23:26:17 10° N 23:29:39 81° E 23:30:47 39° S
Cosmos 1862 Rocket 4.4 23:25:22 10° N 23:29:40 48° ENE 23:32:57 16° SE
SWARM A 4.1 23:26:22 10° N 23:29:44 90° SSE 23:30:49 40° S
CZ-4 R/B 4.0 23:25:10 10° N 23:29:49 64° WNW 23:32:25 26° SW
Cosmos 1633 Rocket 3.7 23:27:34 24° SSE 23:29:53 48° E 23:34:09 10° NNE
Cosmos 2369 Rocket 2.8 23:25:33 10° NW 23:30:44 40° WSW 23:33:18 26° SSW
Sich 1 3.0 23:29:53 31° S 23:31:55 88° E 23:36:17 10° N
SL-4 R/B 2.6 23:32:14 23° ESE 23:32:24 24° ESE 23:34:46 10° ENE
DELTA 2 DEB (DPAF) 4.5 23:29:43 19° SSE 23:32:53 63° ENE 23:37:18 10° N
IRAS Rocket 4.3 23:28:43 17° SSE 23:33:00 77° ENE 23:38:30 10° NNW
Cosmos 44 Rocket 3.2 23:32:07 29° SSW 23:34:28 70° SE 23:39:14 10° NE
Cosmos 1821 Rocket 4.2 23:30:58 23° SSW 23:34:47 60° WNW 23:40:50 10° N
Cosmos 2123 Rocket 4.0 23:30:33 10° NNW 23:36:44 76° W 23:40:49 23° S
Lacrosse 5 3.7 23:36:20 15° SSE 23:38:06 17° ESE 23:41:22 10° E
COSMOS 2455 4.0 23:34:38 10° NW 23:39:34 27° WSW 23:41:47 21° SW
Cosmos 1656 Rocket 3.7 23:35:42 10° NW 23:41:02 61° WSW 23:44:30 22° S
USA 215 4.2 23:40:50 10° ENE 23:47:07 50° N 23:53:22 10° WNW
Cosmos 1812 3.5 23:46:24 10° NNW 23:50:00 38° W 23:51:25 28° SW
CZ-2D R/B 2.8 23:48:21 10° NNE 23:53:29 48° E 23:57:20 18° SSE
